CAPE
0 0 0 0 0 0 0 0 0 0 0 0 0 0 0 0 0 0 0 0 0 0 0 0 0 0 0 0 0 0 0 0 0 0 0 0 0 0 0 0 0 0 0 0
0 0 0 0 0 0 0 0 0 0 0 0 0 0 0 0 0 0 0 0 0 0 0 0 0 0 0 0 0 0 0 0 0 0 0 0 0 0 0 0 0 0 0 0
0 0 0 0 0 0 0 0 0 0 0 0 0 0 0 0 0 0 0 0 0 0 0 0 0 0 0 0 0 0 0 0 0 0 0 0 0 0 0 0 0 0 0 0
0 0 0 0 0 0 0 0 0 0 0 0 0 0 0 0 0 0 0 0 0 0 0 0 0 0 0 0 0 0 0 0 0 0 0 0 0 0 0 0 0 0 0 0
0 0 0 0 0 0 0 0 0 0 0 0 0 0 0 0 0 0 0 0 0 0 0 0 0 0 0 0 0 0 0 0 0 0 0 0 0 0 0 0 0 0 0 0
0 0 0 0 0 0 0 0 0 0 0 0 0 0 0 0 0 0 0 0 0 0 0 0 0 0 0 0 0 0 0 0 0 0 0 0 0 0 0 0 0 0 0 0
0 0 0 0 0 0 0 0 0 0 0 0 0 0 0 0 0 0 0 0 0 0 0 0 0 0 0 0 0 0 0 0 0 0 0 0 0 0 0 0 0 0 0 0
0 0 0 0 0 0 0 0 0 0 0 0 0 0 0 0 0 0 0 0 0 0 0 0 0 0 0 0 0 0 0 0 0 0 0 0 0 0 0 0 0 0 0 0
0 0 0 0 0 0 0 0 0 0 0 0 0 0 0 0 0 0 0 0 0 0 0 0 0 0 0 0 0 0 0 0 0 0 0 0 0 0 0 0 0 0 0 0
0 0 0 0 0 0 0 0 0 0 0 0 0 0 0 0 0 0 0 0 0 0 0 0 0 0 0 0 0 0 0 0 0 0 0 0 0 0 0 0 0 0 0 0
0 0 0 0 0 0 0 0 0 0 0 0 0 0 0 0 0 0 0 0 0 0 0 0 0 0 0 0 0 0 0 0 0 0 0 0 0 0 0 0 0 0 0 0
0 0 0 0 0 0 0 0 0 0 0 0 0 0 0 0 0 0 0 0 0 0 0 0 0 0 0 0 0 0 0 0 0 0 0 0 0 0 0 0 0 0 0 0
0 0 0 0 0 0 0 0 0 0 0 0 0 0 0 0 0 0 0 0 0 0 0 0 0 0 0 0 0 0 0 0 0 0 0 0 0 0 0 0 0 0 0 0
0 0 0 0 0 0 0 0 0 0 0 0 0 0 0 0 0 0 0 0 0 0 0 0 0 0 0 0 0 0 0 0 0 0 0 0 0 0 0 0 0 0 0 0
0 0 0 0 0 0 0 0 0 0 0 0 0 0 0 0 0 0 0 0 0 0 0 0 0 0 0 0 0 0 0 0 0 0 0 0 0 0 0 0 0 0 0 0
0 0 0 0 0 0 0 0 0 0 0 0 0 0 0 0 0 0 0 0 0 0 0 0 0 0 0 0 0 0 0 0 0 0 0 0 0 0 0 0 0 0 0 0
0 0 0 0 0 0 0 0 0 0 0 0 0 0 0 0 0 0 0 0 0 0 0 0 0 0 0 0 0 0 0 0 0 0 0 0 0 0 0 0 0 0 0 0
0 0 0 0 0 0 0 0 0 0 0 0 0 0 0 0 0 0 0 0 0 0 0 0 0 0 0 0 0 0 0 0 0 0 0 0 0 0 0 0 0 0 0 0
0 0 0 0 0 0 0 0 0 0 0 0 0 0 0 0 0 0 0 0 0 0 0 0 0 0 0 0 0 0 0 0 0 0 0 0 0 0 0 0 0 0 0 0
0 0 0 0 0 0 0 0 0 0 0 0 0 0 0 0 0 0 0 0 0 0 0 0 0 0 0 0 0 0 0 0 0 0 0 0 0 0 0 0 0 0 0 0
0 0 0 0 0 0 0 0 0 0 0 0 0 0 0 0 0 0 0 0 0 0 0 0 0 0 0 0 0 0 0 0 0 0 0 0 0 0 0 0 0 0 0 0
0 0 0 0 0 0 0 0 0 0 0 0 0 0 0 0 0 0 0 0 0 0 0 0 0 0 0 0 0 0 0 0 0 0 0 0 0 0 0 0 0 0 0 0
0 0 0 0 0 0 0 0 0 0 0 0 0 0 0 0 0 0 0 0 0 0 0 0 0 0 0 0 0 0 0 0 0 0 0 0 0 0 0 0 0 0 0 0
0 0 0 0 0 0 0 0 0 0 0 0 0 0 0 0 0 0 0 0 0 0 0 0 0 0 0 0 0 0 0 1 0 0 0 0 1 0 0 0 0 0 0 0
0 0 0 0 0 0 0 0 0 0 0 0 0 0 0 0 0 0 0 0 0 0 0 0 0 0 0 0 0 0 0 2 0 0 0 0 0 0 0 0 0 0 0 0
0 0 0 0 0 0 0 0 0 0 0 0 0 0 0 0 0 0 0 0 0 0 0 0 0 0 0 0 0 0 0 1 2 2 0 0 0 0 0 0 0 0 0 0
CIN
0 0 0 0 0 0 0 0 0 0 0 0 0 0 0 0 0 0 0 0 0 0 0 0 0 0 0 0 0 0 0 0 0 0 0 0 0 0 0 0 0 0 0 0
0 0 0 0 0 0 0 0 0 0 0 0 0 0 0 0 0 0 0 0 0 0 0 0 0 0 0 0 0 0 0 0 0 0 0 0 0 0 0 0 0 0 0 0
0 0 0 0 0 0 0 0 0 0 0 0 0 0 0 0 0 0 0 0 0 0 0 0 0 0 0 0 0 0 0 0 0 0 0 0 0 0 0 0 0 0 0 0
0 0 0 0 0 0 0 0 0 0 0 0 0 0 0 0 0 0 0 0 0 0 0 0 0 0 0 0 0 0 0 0 0 0 0 0 0 0 0 0 0 0 0 0
0 0 0 0 0 0 0 0 0 0 0 0 0 0 0 0 0 0 0 0 0 0 0 0 0 0 0 0 0 0 0 0 0 0 0 0 0 0 0 0 0 0 0 0
0 0 0 0 0 0 0 0 0 0 0 0 0 0 0 0 0 0 0 0 0 0 0 0 0 0 0 0 0 0 0 0 0 0 0 0 0 0 0 0 0 0 0 0
0 0 0 0 0 0 0 0 0 0 0 0 0 0 0 0 0 0 0 0 0 0 0 0 0 0 0 0 0 0 0 0 0 0 0 0 0 0 0 0 0 0 0 0
0 0 0 0 0 0 0 0 0 0 0 0 0 0 0 0 0 0 0 0 0 0 0 0 0 0 0 0 0 0 0 0 0 0 0 0 0 0 0 0 0 0 0 0
0 0 0 0 0 0 0 0 0 0 0 0 0 0 0 0 0 0 0 0 0 0 0 0 0 0 0 0 0 0 0 0 0 0 0 0 0 0 0 0 0 0 0 0
0 0 0 0 0 0 0 0 0 0 0 0 0 0 0 0 0 0 0 0 0 0 0 0 0 0 0 0 0 0 0 0 0 0 0 0 0 0 0 0 0 0 0 0
0 0 0 0 0 0 0 0 0 0 0 0 0 0 0 0 0 0 0 0 0 0 0 0 0 0 0 0 0 0 0 0 0 0 0 0 0 0 0 0 0 0 0 0
0 0 0 0 0 0 0 0 0 0 0 0 0 0 0 0 0 0 0 0 0 0 0 0 0 0 0 0 0 0 0 0 0 0 0 0 0 0 0 0 0 0 0 0
0 0 0 0 0 0 0 0 0 0 0 0 0 0 0 0 0 0 0 0 0 0 0 0 0 0 0 0 0 0 0 0 0 0 0 0 0 0 0 0 0 0 0 0
0 0 0 0 0 0 0 0 0 0 0 0 0 0 0 0 0 0 0 0 0 0 0 0 0 0 0 0 0 0 0 0 0 0 0 0 0 0 0 0 0 0 0 0
0 0 0 0 0 0 0 0 0 0 0 0 0 0 0 0 0 0 0 0 0 0 0 0 0 0 0 0 0 0 0 0 0 0 0 0 0 0 0 0 0 0 0 0
0 0 0 0 0 0 0 0 0 0 0 0 0 0 0 0 0 0 0 0 0 0 0 0 0 0 0 0 0 0 0 0 0 0 0 0 0 0 0 0 0 0 0 0
0 0 0 0 0 0 0 0 0 0 0 0 0 0 0 0 0 0 0 0 0 0 0 0 0 0 0 0 0 0 0 0 0 0 0 0 0 0 0 0 0 0 0 0
0 0 0 0 0 0 0 0 0 0 0 0 0 0 0 0 0 0 0 0 0 0 0 0 0 0 0 0 0 0 0 0 0 0 0 0 0 0 0 0 0 0 0 0
0 0 0 0 0 0 0 0 0 0 0 0 0 0 0 0 0 0 0 0 0 0 0 0 0 0 0 0 0 0 0 0 0 0 0 0 0 0 0 0 0 0 0 0
0 0 0 0 0 0 0 0 0 0 0 0 0 0 0 0 0 0 0 0 0 0 0 0 0 0 0 0 0 0 0 0 0 0 0 0 0 -65 0 0 0 0 0 0
0 0 0 0 0 0 0 0 0 0 0 0 0 0 0 0 0 0 0 0 0 0 0 0 0 0 0 0 0 0 0 0 0 0 0 0 0 0 0 0 0 0 0 0
0 0 0 0 0 0 0 0 0 0 0 0 0 0 0 0 0 0 0 0 0 0 0 0 0 0 0 0 0 0 0 0 0 0 0 0 0 0 0 0 0 0 0 0
0 0 0 0 0 0 0 0 0 0 0 0 0 0 0 0 0 0 0 0 0 0 0 0 0 0 0 0 0 0 0 0 0 0 0 0 0 0 0 0 0 0 0 0
0 0 0 0 0 0 0 0 0 0 0 0 0 0 0 0 0 0 0 0 0 0 0 0 0 0 0 0 0 0 0 0 0 0 0 0 0 0 0 0 0 0 0 0
0 0 0 0 0 0 0 0 0 0 0 0 0 0 0 0 0 0 0 0 0 0 0 0 0 0 0 0 0 0 0 0 0 0 0 0 0 0 0 0 0 0 0 0
0 0 0 0 0 0 0 0 0 0 0 0 0 0 0 0 0 0 0 0 0 0 0 0 0 0 0 0 0 0 0 0 0 0 0 0 0 0 0 0 0 0 0 0
Wind_Speed
21 27 13 18 16 19 18 18 17 16 17 16 14 13 12 13 14 15 17 18 21 22 22 23 23 24 26 28 29 28 30 31 32 31 31 30 30 30 30 30 31 31 32 32
23 7 12 20 20 21 20 18 17 16 13 13 12 11 10 11 12 13 14 17 20 21 23 25 25 25 26 28 29 29 30 31 31 31 30 29 29 29 30 31 32 32 33 32
16 14 17 17 17 17 17 16 14 12 14 12 11 12 8 10 11 12 14 16 19 21 23 26 27 24 25 28 28 29 30 30 29 30 30 29 28 29 31 33 33 33 34 33
14 14 14 13 14 14 14 14 14 12 11 12 6 14 7 6 9 10 13 16 19 20 23 26 28 23 25 27 28 29 28 30 29 30 30 31 31 32 32 33 33 33 34 34
13 13 13 13 14 15 13 14 15 15 11 14 5 14 17 4 9 9 11 15 17 20 24 26 26 23 24 25 27 28 28 29 29 31 30 31 31 31 31 32 34 34 34 34
12 14 14 13 14 15 13 14 16 15 13 13 9 5 15 4 6 7 11 12 16 20 23 24 24 23 23 23 25 26 27 28 29 31 31 31 32 32 33 33 34 35 35 35
12 13 13 14 13 15 13 14 16 15 14 14 12 11 15 6 4 4 8 12 15 18 22 23 22 22 24 24 22 23 25 27 28 30 30 31 32 32 33 34 34 36 36 36
8 10 14 16 14 13 14 12 13 16 15 16 13 15 16 12 9 7 8 10 13 16 19 20 19 20 22 22 19 21 22 25 26 28 29 31 32 32 33 33 34 34 35 36
9 12 12 14 14 14 14 15 13 16 16 17 15 15 15 9 8 8 8 9 11 14 16 17 16 17 20 20 17 18 20 22 23 26 27 29 30 31 33 34 33 34 35 35
9 12 12 13 14 16 14 12 15 17 17 16 17 14 13 5 5 7 7 8 10 11 13 13 13 13 13 15 16 13 14 16 17 20 22 24 25 26 27 30 31 32 33 34
9 13 13 13 14 12 12 13 16 15 15 17 19 16 13 2 3 5 6 7 8 8 10 11 10 10 11 12 13 13 13 16 16 17 20 22 24 25 25 26 26 27 29 30
11 13 14 14 14 15 13 13 13 16 18 16 17 17 14 5 5 7 9 9 8 7 8 8 9 11 11 10 11 12 13 14 13 16 18 20 21 23 24 25 25 25 27 27
6 13 15 17 17 15 13 13 13 15 16 16 18 17 10 11 12 17 18 14 13 9 9 11 13 13 12 12 11 12 13 14 14 15 18 21 23 24 25 23 24 25 26 27
10 13 15 16 16 14 13 10 11 14 17 17 15 16 10 12 19 23 27 21 19 18 18 17 14 16 17 14 14 15 16 16 16 14 17 21 22 24 25 23 23 25 26 27
12 15 15 15 15 14 15 13 11 12 14 16 17 14 10 12 23 22 21 20 22 24 25 26 26 24 22 19 17 20 19 20 18 17 19 21 22 23 24 23 23 25 26 27
14 16 16 17 15 15 16 15 12 12 15 14 14 16 11 12 17 22 22 23 26 27 30 32 32 33 34 33 28 23 20 22 22 21 21 21 21 21 23 22 24 25 26 27
13 13 15 18 18 19 22 15 13 15 14 12 13 13 19 22 20 18 23 26 28 31 33 35 36 36 36 36 34 34 32 30 28 26 25 24 23 23 23 23 23 25 27 27
12 13 16 17 17 21 19 19 13 12 17 9 17 15 18 16 12 20 25 29 32 34 37 38 39 40 40 39 40 39 38 36 34 32 30 29 27 26 24 24 25 26 28 28
12 13 16 17 17 23 20 17 15 15 21 18 14 17 20 19 17 21 32 32 34 37 39 41 40 41 41 42 42 40 39 39 39 39 36 32 28 27 25 25 26 27 28 29
11 13 16 17 20 22 20 14 13 15 19 16 16 19 22 24 25 28 35 37 40 41 40 41 41 41 42 45 44 43 42 41 40 39 37 34 28 28 28 26 26 26 29 29
14 15 16 17 21 23 16 12 14 21 20 16 17 19 22 24 24 29 33 35 37 38 40 41 42 42 42 43 44 45 44 45 45 43 41 37 32 31 27 24 25 27 28 30
14 14 17 17 21 26 14 14 19 15 13 15 18 20 23 24 27 32 35 38 38 40 41 41 42 42 43 45 45 47 48 47 48 49 46 41 35 28 24 24 29 32 28 26
17 14 17 14 20 19 19 15 13 13 14 17 20 22 24 27 30 33 35 36 38 38 39 40 41 43 43 44 45 48 48 48 48 49 47 43 36 30 28 31 30 26 29 27
15 10 16 15 17 16 15 15 15 16 17 19 21 23 26 28 30 32 33 34 36 37 39 41 44 46 47 46 46 45 46 46 47 47 45 42 41 36 33 30 29 32 31 30
14 9 14 18 14 15 16 15 16 18 19 22 24 25 27 28 30 30 32 35 36 37 39 42 46 46 46 46 47 46 46 47 48 46 43 41 37 37 36 33 35 33 34 31
17 16 15 20 16 17 15 16 18 21 22 23 25 28 27 29 30 32 34 35 38 41 43 47 48 49 50 50 50 49 47 47 47 45 43 41 39 37 35 34 37 34 35 36
Wind_Direction
145 87 180 139 154 130 88 76 68 51 70 43 55 55 56 53 43 35 27 23 15 9 7 6 2 360 358 356 355 357 355 352 351 348 343 341 338 342 342 339 335 334 332 329
127 250 192 51 55 75 75 64 70 55 56 54 59 45 51 50 43 42 35 20 13 11 6 3 4 1 359 359 357 355 353 354 351 350 348 346 344 344 344 343 341 339 336 331
88 92 40 47 38 58 41 56 72 70 39 40 52 19 21 17 32 28 21 17 11 8 5 0 1 5 3 359 356 356 355 355 354 353 350 347 346 343 340 340 341 340 339 337
13 357 21 16 33 20 52 39 34 41 45 24 45 359 6 27 13 14 13 10 9 10 9 4 1 7 2 0 360 358 358 355 354 355 351 348 345 341 339 338 340 340 340 339
26 13 11 20 19 14 43 26 15 11 28 13 24 360 353 7 347 2 9 7 12 9 12 8 9 12 10 7 4 3 3 360 357 355 354 351 348 346 343 340 338 338 341 340
26 26 21 27 23 21 40 31 16 13 17 2 5 349 353 344 337 359 4 12 12 9 12 14 13 13 12 12 9 7 5 3 360 357 356 353 350 345 342 340 338 337 338 338
356 2 13 13 17 11 28 20 10 8 7 0 17 1 347 335 352 11 13 11 12 15 13 13 13 14 9 8 12 11 9 7 5 2 0 357 355 351 346 343 342 339 338 338
6 7 349 350 2 7 8 22 10 359 1 358 8 356 355 15 40 32 29 22 22 18 17 15 20 15 11 9 16 12 12 11 8 5 2 357 354 351 348 345 343 343 340 338
354 350 4 3 6 6 6 3 18 6 3 355 355 3 8 24 19 22 26 23 20 15 18 19 22 19 13 12 16 14 13 10 10 9 7 4 2 356 352 348 347 345 343 341
356 348 352 352 359 357 1 19 4 0 356 354 354 352 352 7 359 10 13 18 17 20 19 22 28 28 26 23 23 27 24 21 22 18 15 14 11 10 6 1 357 355 352 347
357 344 347 351 348 355 3 2 360 3 360 352 350 352 355 15 21 9 7 10 12 15 12 16 24 25 23 23 23 23 23 14 10 11 10 7 5 5 4 2 1 359 357 355
345 349 340 340 351 353 355 355 355 348 347 351 350 345 3 34 24 7 357 356 356 360 4 8 8 6 8 9 10 9 7 5 7 5 4 2 2 1 358 355 357 356 355 354
359 340 336 337 338 338 343 348 350 354 354 344 343 347 13 7 355 342 340 340 339 341 347 347 347 349 350 349 351 351 352 352 354 356 355 354 354 353 351 349 350 350 349 349
348 335 329 330 341 353 346 344 344 343 341 342 334 343 347 346 335 328 326 336 337 330 329 333 337 338 339 335 333 334 336 341 342 342 343 343 345 346 345 343 343 343 343 342
333 324 327 335 342 343 343 344 335 326 333 333 340 336 328 328 327 327 329 334 331 326 329 328 329 332 334 332 326 327 328 333 334 330 330 332 334 337 339 340 337 337 337 336
324 324 327 326 330 331 330 331 327 323 325 316 323 323 326 329 329 327 327 331 330 330 328 328 330 329 329 329 333 333 330 326 324 322 319 322 325 326 328 329 331 333 332 330
320 323 327 323 332 333 326 323 319 328 332 328 322 326 332 329 336 343 334 334 331 325 323 323 323 324 325 327 330 330 328 326 322 316 314 313 313 315 320 323 322 326 327 326
322 323 327 326 332 323 336 347 352 345 343 326 339 343 345 344 353 345 339 331 328 326 324 323 322 321 322 323 322 323 324 325 324 320 314 308 305 307 310 314 315 318 321 319
326 323 324 322 320 328 334 340 346 342 348 359 355 348 342 335 331 327 330 331 328 327 325 322 323 322 322 321 322 323 324 324 324 323 320 312 300 299 299 304 306 311 315 314
322 326 319 323 322 324 336 348 357 353 328 348 348 339 335 333 324 323 325 327 325 326 329 329 330 329 327 326 327 327 327 327 325 324 323 318 305 297 294 296 302 307 310 312
311 316 310 314 317 325 328 346 352 327 331 346 344 340 338 334 332 329 329 330 329 329 328 329 329 329 330 332 332 330 330 329 329 328 325 320 310 303 293 296 303 305 307 307
304 313 316 319 319 320 340 333 326 341 353 348 345 341 339 337 334 332 331 330 330 330 330 332 332 331 332 332 332 329 328 330 329 329 326 321 315 309 300 299 303 301 301 303
308 310 321 318 326 336 343 346 358 353 349 344 341 339 337 334 333 333 333 333 333 334 334 334 334 333 335 337 336 333 333 333 331 329 328 326 322 315 306 304 304 302 305 305
307 319 323 326 334 341 350 356 356 352 347 344 341 337 335 333 334 334 334 335 334 335 335 335 334 332 332 335 335 334 333 334 334 334 332 329 324 317 315 313 311 308 304 300
316 309 319 327 338 345 346 348 349 347 345 341 338 335 334 334 334 336 336 335 335 335 335 334 332 331 331 332 332 332 332 331 330 330 331 332 327 325 321 314 308 307 301 299
319 317 304 314 322 325 335 344 345 342 340 339 337 336 338 339 338 337 335 336 335 333 333 332 332 331 330 329 329 329 330 330 328 326 327 327 326 322 316 313 306 304 300 299